CZ-3B R/B, 62375

Orbit data source: Space-Track

CZ-3B R/B, 62375 is space debris in HEO originally from a launch on Fri, 20 Dec 2024 UTC launched from the Xichang Space Center, China (XSC). Debris objects in space refer to the collection of defunct objects orbiting the Earth. Examples of debris include non-operational satellites, rocket bodies, and fragments generated from explosions, collisions, or faulty payload assembly.

Loading next visibility...
Identifier
62375, 2024-246B
Orbit
HEO
Country
Flag of CNCN / PRC
Related business
Manufacturer
CALT
Mission
Spacecraft
Bus & Motor
CZ-3A STAGE 3, Unknown motor
Mass
~2,800 kg wet, ~2,800 kg dry
Launch date (UTC)
2024-12-20 (1 year ago)
Launch vehicle
Unknown
Launch site
Xichang Space Center, China (XSC)
Object type
Payload
Rocket body
Debris
Shape & HBR
Cyl + 1 Nozzle, 6.2 m
Radar Cross Section
32.704 m², Large (>1 m²)

Expand to show TLE details & history
Last TLE update: 1 day ago

TLE from 1 day ago
0 CZ-3B R/B
1 62375U 24246B   26170.66663441  .00113707  64306-6  74749-3 0  9991
2 62375  28.0755 356.4518 5901178 339.8205   4.2168  4.31230509 17630
Epoch: 2026-06-19T15:59Z
TLE epoch observation values (Epoch: 2026-06-19T15:59:57.213Z)
Latitude
0.00012°
Longitude
-151.42775°
Altitude
316.515 km
Speed
9.699 km/s
True Right ascension
23h 45m 48s
True Declination
0° 00' 00"
Sunlit
Object was in daylight at epoch
Visualization orbit readout
Latitude
Unknown
Longitude
Unknown
Altitude
Unknown
Speed
Unknown
Apparent Right ascension
Unknown
Apparent Declination
Unknown
Sunlit
N/A
Visualization observer readout
Local Sidereal Time
07:18:45
Azimuth
Unknown
Elevation
Unknown
Doppler factor
Unknown
Orbital elements
Apogee altitude
18,980.189 km
Perigee altitude
158.439 km
Semi-major axis
15,947.451 km
Eccentricity
0.59012
Inclination
28.0755°
RAAN
356.4518°
Arg. of periapsis
339.8205°
True anomaly
19.95932°
Mean anomaly
4.2168°
Eccentric anomaly
10.21016°
Mean motion
1.07772 °/min
Orbital period
334.04 mins
BSTAR
0.00074749
Loading maneuver chart data...
Computing Atmospheric mass density...
Loading historical data...
Loading historical data...
Loading historical data...
Loading historical data...
Loading historical data...
Loading historical data...
Loading historical data...
Other satellites on launch #246 in the year 2024 (2024-12-20 UTC)

Documentation

Showing up to 5 results
|